| time (UTC) | temp C | wind direction | speed KPH | gust KPH | rain 1hr cm | rain 24hr cm | rain mn cm | humidity % | barometer mb |
| 20260508035551 | 5 | 320 | 6.4 | 14.5 | 0.00 | 0.00 | 0.00 | 87 | 1015.0 |
| 20260508035522 | 5 | 315 | 6.4 | 9.7 | 0.00 | 0.00 | 0.00 | 87 | 1015.0 |
| 20260508035043 | 5 | 310 | 6.4 | 9.7 | 0.00 | 0.00 | 0.00 | 87 | 1014.0 |
| 20260508034545 | 5 | 320 | 6.4 | 8.0 | 0.00 | 0.00 | 0.00 | 87 | 1015.0 |
| 20260508034539 | 5 | 325 | 8.0 | 9.7 | 0.00 | 0.00 | 0.00 | 87 | 1015.0 |
| 20260508034030 | 5 | 314 | 4.8 | 8.0 | 0.00 | 0.00 | 0.00 | 87 | 1014.0 |
| 20260508033552 | 5 | 342 | 3.2 | 4.8 | 0.00 | 0.00 | 0.00 | 88 | 1015.0 |
| 20260508033533 | 5 | 332 | 6.4 | 12.9 | 0.00 | 0.00 | 0.00 | 88 | 1015.0 |
| 20260508033107 | 5 | 330 | 6.4 | 8.0 | 0.00 | 0.00 | 0.00 | 89 | 1014.0 |
| 20260508032615 | 5 | 359 | 3.2 | 6.4 | 0.00 | 0.00 | 0.00 | 89 | 1015.0 |
| 20260508032031 | 5 | 349 | 3.2 | 6.4 | 0.00 | 0.00 | 0.00 | 89 | 1014.0 |
| 20260508031756 | 5 | 342 | 4.8 | 6.4 | 0.00 | 0.00 | 0.00 | 89 | 1014.7 |
| 20260508031551 | 5 | 0 | 3.2 | 6.4 | 0.00 | 0.00 | 0.00 | 89 | 1015.0 |
| 20260508031039 | 5 | 328 | 6.4 | 9.7 | 0.00 | 0.00 | 0.00 | 89 | 1014.0 |
| 20260508030559 | 5 | 326 | 4.8 | 8.0 | 0.00 | 0.00 | 0.00 | 89 | 1015.0 |
| 20260508030024 | 5 | 323 | 6.4 | 11.3 | 0.00 | 0.00 | 0.00 | 89 | 1014.0 |
| 20260508025746 | 5 | 320 | 8.0 | 9.7 | 0.00 | 0.00 | 0.00 | 89 | 1015.0 |
| 20260508025526 | 5 | 314 | 8.0 | 14.5 | 0.00 | 0.00 | 0.00 | 89 | 1015.0 |
| 20260508025020 | 5 | 317 | 11.3 | 17.7 | 0.00 | 0.00 | 0.00 | 89 | 1014.0 |
| 20260508024733 | 5 | 332 | 6.4 | 9.7 | 0.00 | 0.00 | 0.00 | 88 | 1015.0 |
| 20260508024543 | 5 | 321 | 8.0 | 16.1 | 0.00 | 0.00 | 0.00 | 88 | 1015.0 |
| 20260508024034 | 5 | 328 | 8.0 | 12.9 | 0.00 | 0.00 | 0.00 | 88 | 1014.0 |
| 20260508023704 | 5 | 329 | 4.8 | 6.4 | 0.00 | 0.00 | 0.00 | 88 | 1015.0 |
| 20260508023519 | 5 | 329 | 4.8 | 6.4 | 0.00 | 0.00 | 0.00 | 88 | 1015.0 |
| 20260508023030 | 5 | 317 | 6.4 | 12.9 | 0.00 | 0.00 | 0.00 | 88 | 1014.0 |
| 20260508022559 | 5 | 323 | 8.0 | 12.9 | 0.00 | 0.00 | 0.00 | 88 | 1015.0 |
| 20260508022524 | 5 | 321 | 8.0 | 11.3 | 0.00 | 0.00 | 0.00 | 88 | 1015.0 |
| 20260508022026 | 5 | 328 | 9.7 | 14.5 | 0.00 | 0.00 | 0.00 | 88 | 1014.0 |
| 20260508021546 | 5 | 334 | 6.4 | 9.7 | 0.00 | 0.00 | 0.00 | 89 | 1015.0 |
| 20260508021520 | 5 | 315 | 8.0 | 12.9 | 0.00 | 0.00 | 0.00 | 89 | 1015.0 |
| 20260508021043 | 5 | 318 | 8.0 | 14.5 | 0.00 | 0.00 | 0.00 | 89 | 1014.0 |
| 20260508020551 | 5 | 320 | 8.0 | 8.0 | 0.00 | 0.00 | 0.00 | 90 | 1015.0 |
| 20260508020525 | 5 | 316 | 8.0 | 14.5 | 0.00 | 0.00 | 0.00 | 90 | 1015.0 |
| 20260508020047 | 5 | 311 | 8.0 | 16.1 | 0.00 | 0.00 | 0.00 | 90 | 1014.0 |
| 20260508015724 | 5 | 296 | 9.7 | 9.7 | 0.00 | 0.00 | 0.00 | 90 | 1015.0 |
| 20260508015521 | 5 | 315 | 8.0 | 12.9 | 0.00 | 0.00 | 0.00 | 90 | 1015.0 |
| 20260508015033 | 5 | 307 | 9.7 | 17.7 | 0.00 | 0.00 | 0.00 | 90 | 1014.0 |
| 20260508014527 | 5 | 320 | 8.0 | 12.9 | 0.00 | 0.00 | 0.00 | 89 | 1015.0 |
| 20260508014020 | 5 | 312 | 9.7 | 14.5 | 0.00 | 0.00 | 0.00 | 89 | 1014.0 |
| 20260508013659 | 6 | 311 | 9.7 | 12.9 | 0.00 | 0.00 | 0.00 | 88 | 1015.0 |
| 20260508013522 | 6 | 314 | 9.7 | 14.5 | 0.00 | 0.00 | 0.00 | 88 | 1015.0 |
| 20260508013025 | 6 | 313 | 11.3 | 16.1 | 0.00 | 0.00 | 0.00 | 88 | 1014.0 |
| 20260508012709 | 6 | 304 | 9.7 | 14.5 | 0.00 | 0.00 | 0.00 | 87 | 1015.0 |
| 20260508012539 | 6 | 313 | 9.7 | 20.9 | 0.00 | 0.00 | 0.00 | 87 | 1015.0 |
| 20260508012021 | 6 | 318 | 9.7 | 14.5 | 0.00 | 0.00 | 0.00 | 87 | 1014.0 |
| 20260508011642 | 6 | 283 | 6.4 | 8.0 | 0.00 | 0.00 | 0.00 | 87 | 1015.0 |
| 20260508011533 | 6 | 289 | 8.0 | 16.1 | 0.00 | 0.00 | 0.00 | 87 | 1015.0 |
| 20260508011040 | 6 | 309 | 8.0 | 12.9 | 0.00 | 0.00 | 0.00 | 88 | 1014.0 |
| 20260508010615 | 6 | 301 | 11.3 | 16.1 | 0.00 | 0.00 | 0.00 | 88 | 1014.7 |
| 20260508010540 | 6 | 307 | 11.3 | 17.7 | 0.00 | 0.00 | 0.00 | 88 | 1015.0 |
| 20260508010022 | 6 | 310 | 9.7 | 16.1 | 0.00 | 0.00 | 0.00 | 88 | 1014.0 |
| 20260508005600 | 6 | 313 | 9.7 | 17.7 | 0.00 | 0.00 | 0.00 | 88 | 1014.7 |
| 20260508005545 | 6 | 316 | 14.5 | 17.7 | 0.00 | 0.00 | 0.00 | 88 | 1014.7 |
| 20260508005022 | 6 | 298 | 8.0 | 16.1 | 0.00 | 0.00 | 0.00 | 88 | 1014.0 |
| 20260508004539 | 6 | 316 | 9.7 | 12.9 | 0.00 | 0.00 | 0.00 | 88 | 1014.7 |
| 20260508004521 | 6 | 307 | 9.7 | 14.5 | 0.00 | 0.00 | 0.00 | 87 | 1015.0 |
| 20260508004033 | 6 | 314 | 9.7 | 19.3 | 0.00 | 0.00 | 0.00 | 86 | 1013.7 |
| 20260508003628 | 6 | 314 | 16.1 | 17.7 | 0.00 | 0.00 | 0.00 | 86 | 1014.7 |
| 20260508003526 | 6 | 309 | 14.5 | 27.4 | 0.00 | 0.00 | 0.00 | 86 | 1014.7 |
| 20260508003020 | 6 | 308 | 14.5 | 20.9 | 0.00 | 0.00 | 0.00 | 85 | 1013.7 |
| 20260508002650 | 6 | 286 | 11.3 | 11.3 | 0.00 | 0.00 | 0.00 | 85 | 1014.3 |
| 20260508002540 | 6 | 284 | 12.9 | 25.7 | 0.00 | 0.00 | 0.00 | 85 | 1014.7 |
| 20260508002101 | 6 | 290 | 12.9 | 22.5 | 0.00 | 0.00 | 0.00 | 85 | 1013.7 |
| 20260508001554 | 6 | 293 | 14.5 | 19.3 | 0.00 | 0.00 | 0.00 | 85 | 1014.3 |
| 20260508001545 | 6 | 301 | 12.9 | 19.3 | 0.00 | 0.00 | 0.00 | 85 | 1014.3 |
| 20260508001030 | 6 | 289 | 11.3 | 20.9 | 0.00 | 0.00 | 0.00 | 85 | 1013.3 |
| 20260508000801 | 6 | 279 | 11.3 | 16.1 | 0.00 | 0.00 | 0.00 | 84 | 1014.0 |
| 20260508000532 | 6 | 269 | 11.3 | 16.1 | 0.00 | 0.00 | 0.00 | 84 | 1014.3 |
| 20260508000035 | 6 | 256 | 14.5 | 25.7 | 0.00 | 0.00 | 0.00 | 84 | 1013.3 |
| 20260507235529 | 6 | 257 | 17.7 | 20.9 | 0.00 | 0.00 | 0.00 | 84 | 1014.0 |
| 20260507235520 | 6 | 256 | 17.7 | 29.0 | 0.00 | 0.00 | 0.00 | 84 | 1014.0 |
| 20260507235031 | 7 | 267 | 16.1 | 27.4 | 0.00 | 0.00 | 0.00 | 82 | 1013.3 |
| 20260507234600 | 7 | 299 | 14.5 | 20.9 | 0.00 | 0.00 | 0.00 | 77 | 1014.0 |
| 20260507234545 | 7 | 295 | 14.5 | 24.1 | 0.00 | 0.00 | 0.00 | 77 | 1014.0 |
| 20260507234059 | 7 | 293 | 19.3 | 27.4 | 0.00 | 0.00 | 0.00 | 76 | 1013.0 |
| 20260507233547 | 7 | 304 | 12.9 | 12.9 | 0.00 | 0.00 | 0.00 | 77 | 1013.7 |
| 20260507233530 | 7 | 314 | 20.9 | 38.6 | 0.00 | 0.00 | 0.00 | 76 | 1014.0 |
| 20260507233104 | 8 | 313 | 16.1 | 20.9 | 0.00 | 0.00 | 0.00 | 78 | 1013.0 |
| 20260507232544 | 7 | 293 | 12.9 | 19.3 | 0.00 | 0.00 | 0.00 | 77 | 1013.7 |
| 20260507232535 | 7 | 306 | 11.3 | 19.3 | 0.00 | 0.00 | 0.00 | 77 | 1014.0 |
| 20260507232040 | 7 | 308 | 16.1 | 20.9 | 0.00 | 0.00 | 0.00 | 77 | 1013.0 |
| 20260507231549 | 7 | 321 | 16.1 | 20.9 | 0.00 | 0.00 | 0.00 | 78 | 1013.7 |
| 20260507231531 | 7 | 310 | 14.5 | 20.9 | 0.00 | 0.00 | 0.00 | 78 | 1013.7 |
| 20260507231025 | 7 | 291 | 16.1 | 24.1 | 0.00 | 0.00 | 0.00 | 79 | 1012.6 |
| 20260507230637 | 7 | 303 | 16.1 | 25.7 | 0.00 | 0.00 | 0.00 | 80 | 1013.7 |
| 20260507230519 | 7 | 306 | 14.5 | 25.7 | 0.00 | 0.00 | 0.00 | 79 | 1013.7 |
| 20260507230030 | 7 | 295 | 14.5 | 22.5 | 0.00 | 0.00 | 0.00 | 79 | 1012.6 |
| 20260507225726 | 7 | 295 | 16.1 | 25.7 | 0.00 | 0.00 | 0.00 | 79 | 1013.7 |
| 20260507225524 | 7 | 312 | 16.1 | 25.7 | 0.00 | 0.00 | 0.00 | 80 | 1013.7 |
| 20260507225052 | 7 | 306 | 16.1 | 27.4 | 0.00 | 0.00 | 0.00 | 80 | 1012.6 |
| 20260507224528 | 7 | 311 | 17.7 | 20.9 | 0.00 | 0.00 | 0.00 | 80 | 1013.7 |
| 20260507224520 | 7 | 310 | 14.5 | 22.5 | 0.00 | 0.00 | 0.00 | 80 | 1013.7 |
| 20260507224022 | 7 | 303 | 12.9 | 17.7 | 0.00 | 0.00 | 0.00 | 80 | 1012.6 |
| 20260507223542 | 7 | 290 | 16.1 | 20.9 | 0.00 | 0.00 | 0.00 | 80 | 1013.7 |
| 20260507223525 | 7 | 285 | 11.3 | 12.9 | 0.00 | 0.00 | 0.00 | 81 | 1013.3 |
| 20260507223106 | 7 | 265 | 16.1 | 27.4 | 0.00 | 0.00 | 0.00 | 80 | 1012.6 |
| 20260507222530 | 7 | 250 | 17.7 | 32.2 | 0.00 | 0.00 | 0.00 | 79 | 1013.3 |
| 20260507222521 | 7 | 262 | 24.1 | 32.2 | 0.00 | 0.00 | 0.00 | 79 | 1013.3 |
| 20260507222023 | 7 | 249 | 19.3 | 29.0 | 0.00 | 0.00 | 0.00 | 79 | 1012.3 |
| 20260507221602 | 7 | 234 | 24.1 | 30.6 | 0.00 | 0.00 | 0.00 | 79 | 1013.3 |
| 20260507221526 | 7 | 250 | 16.1 | 29.0 | 0.00 | 0.00 | 0.00 | 79 | 1013.3 |
| 20260507221049 | 7 | 264 | 14.5 | 30.6 | 0.00 | 0.00 | 0.00 | 79 | 1012.6 |
| 20260507220522 | 7 | 244 | 19.3 | 30.6 | 0.00 | 0.00 | 0.00 | 78 | 1013.3 |
| 20260507220025 | 7 | 253 | 17.7 | 32.2 | 0.00 | 0.00 | 0.00 | 78 | 1012.6 |
| 20260507215611 | 8 | 249 | 19.3 | 43.5 | 0.00 | 0.00 | 0.00 | 78 | 1013.3 |
| 20260507215519 | 8 | 246 | 16.1 | 24.1 | 0.00 | 0.00 | 0.00 | 78 | 1013.3 |
| 20260507215021 | 8 | 282 | 16.1 | 22.5 | 0.00 | 0.00 | 0.00 | 75 | 1012.3 |
| 20260507214524 | 8 | 295 | 17.7 | 25.7 | 0.00 | 0.00 | 0.00 | 74 | 1013.3 |
| 20260507214035 | 8 | 292 | 19.3 | 27.4 | 0.00 | 0.00 | 0.00 | 73 | 1012.3 |
| 20260507213529 | 8 | 285 | 14.5 | 19.3 | 0.00 | 0.00 | 0.00 | 74 | 1013.3 |
| 20260507213521 | 8 | 300 | 14.5 | 20.9 | 0.00 | 0.00 | 0.00 | 74 | 1013.3 |
| 20260507213023 | 8 | 296 | 17.7 | 27.4 | 0.00 | 0.00 | 0.00 | 75 | 1012.3 |
| 20260507212542 | 8 | 305 | 20.9 | 32.2 | 0.00 | 0.00 | 0.00 | 73 | 1013.0 |
| 20260507212525 | 8 | 297 | 22.5 | 32.2 | 0.00 | 0.00 | 0.00 | 73 | 1013.0 |
| 20260507212018 | 9 | 297 | 17.7 | 32.2 | 0.00 | 0.00 | 0.00 | 72 | 1011.9 |
| 20260507211521 | 9 | 296 | 19.3 | 29.0 | 0.00 | 0.00 | 0.00 | 74 | 1013.0 |
| 20260507211024 | 9 | 265 | 17.7 | 29.0 | 0.00 | 0.00 | 0.00 | 77 | 1011.9 |
| 20260507210552 | 8 | 271 | 14.5 | 22.5 | 0.00 | 0.00 | 0.00 | 78 | 1012.6 |
| 20260507210535 | 8 | 260 | 17.7 | 24.1 | 0.00 | 0.00 | 0.00 | 78 | 1013.0 |
| 20260507210020 | 8 | 259 | 19.3 | 27.4 | 0.00 | 0.00 | 0.00 | 78 | 1011.9 |
| 20260507205522 | 8 | 279 | 17.7 | 24.1 | 0.00 | 0.00 | 0.00 | 78 | 1013.0 |
| 20260507205103 | 8 | 253 | 16.1 | 20.9 | 0.00 | 0.00 | 0.00 | 78 | 1011.9 |
| 20260507204602 | 8 | 271 | 16.1 | 24.1 | 0.00 | 0.00 | 0.00 | 79 | 1012.6 |
| 20260507204518 | 8 | 270 | 16.1 | 25.7 | 0.00 | 0.00 | 0.00 | 79 | 1012.6 |
| 20260507204050 | 8 | 263 | 20.9 | 29.0 | 0.00 | 0.00 | 0.00 | 78 | 1011.9 |
| 20260507203532 | 8 | 267 | 14.5 | 20.9 | 0.00 | 0.00 | 0.00 | 78 | 1013.0 |
| 20260507203524 | 8 | 269 | 17.7 | 24.1 | 0.00 | 0.00 | 0.00 | 78 | 1012.6 |
| 20260507203052 | 8 | 279 | 16.1 | 20.9 | 0.00 | 0.00 | 0.00 | 76 | 1011.9 |
| 20260507202546 | 7 | 279 | 14.5 | 20.9 | 0.00 | 0.00 | 0.00 | 78 | 1012.6 |
| 20260507202528 | 7 | 280 | 12.9 | 20.9 | 0.00 | 0.00 | 0.00 | 78 | 1012.6 |
| 20260507202049 | 7 | 294 | 16.1 | 22.5 | 0.00 | 0.00 | 0.00 | 77 | 1011.9 |
| 20260507201534 | 7 | 315 | 12.9 | 20.9 | 0.00 | 0.00 | 0.00 | 77 | 1013.0 |
| 20260507201019 | 7 | 308 | 12.9 | 20.9 | 0.00 | 0.00 | 0.00 | 78 | 1011.9 |
| 20260507200608 | 7 | 303 | 9.7 | 17.7 | 0.00 | 0.00 | 0.00 | 78 | 1012.6 |
| 20260507200538 | 7 | 310 | 11.3 | 17.7 | 0.00 | 0.00 | 0.00 | 78 | 1013.0 |
| 20260507200024 | 7 | 303 | 16.1 | 24.1 | 0.00 | 0.00 | 0.00 | 77 | 1011.9 |
| 20260507195630 | 7 | 302 | 19.3 | 27.4 | 0.00 | 0.00 | 0.00 | 77 | 1012.6 |
| 20260507195535 | 8 | 303 | 19.3 | 25.7 | 0.00 | 0.00 | 0.00 | 77 | 1013.0 |
| 20260507195037 | 8 | 302 | 19.3 | 29.0 | 0.00 | 0.00 | 0.00 | 76 | 1011.9 |
| 20260507194548 | 8 | 297 | 19.3 | 29.0 | 0.00 | 0.00 | 0.00 | 75 | 1012.6 |
| 20260507194544 | 8 | 302 | 19.3 | 29.0 | 0.00 | 0.00 | 0.00 | 75 | 1013.0 |
| 20260507194111 | 8 | 304 | 22.5 | 30.6 | 0.00 | 0.00 | 0.00 | 74 | 1011.9 |
| 20260507193634 | 8 | 304 | 25.7 | 32.2 | 0.00 | 0.00 | 0.00 | 73 | 1012.6 |
| 20260507193559 | 8 | 306 | 25.7 | 32.2 | 0.00 | 0.00 | 0.00 | 73 | 1013.0 |
| 20260507193035 | 8 | 308 | 22.5 | 35.4 | 0.00 | 0.00 | 0.00 | 74 | 1011.6 |
| 20260507192729 | 8 | 309 | 19.3 | 27.4 | 0.00 | 0.00 | 0.00 | 76 | 1012.6 |
| 20260507192523 | 9 | 306 | 17.7 | 27.4 | 0.00 | 0.00 | 0.00 | 76 | 1012.6 |
| 20260507192027 | 8 | 309 | 20.9 | 29.0 | 0.00 | 0.00 | 0.00 | 76 | 1011.6 |
| 20260507191537 | 9 | 299 | 17.7 | 29.0 | 0.00 | 0.00 | 0.00 | 74 | 1012.6 |
| 20260507191528 | 9 | 296 | 16.1 | 20.9 | 0.00 | 0.00 | 0.00 | 74 | 1012.6 |
| 20260507191029 | 10 | 286 | 9.7 | 14.5 | 0.00 | 0.00 | 0.00 | 75 | 1011.6 |
| 20260507190542 | 9 | 280 | 6.4 | 9.7 | 0.00 | 0.00 | 0.00 | 75 | 1012.3 |
| 20260507190525 | 10 | 287 | 6.4 | 11.3 | 0.00 | 0.00 | 0.00 | 76 | 1012.3 |
| 20260507190018 | 9 | 319 | 3.2 | 9.7 | 0.00 | 0.00 | 0.00 | 78 | 1011.6 |
| 20260507185538 | 9 | 327 | 4.8 | 9.7 | 0.00 | 0.00 | 0.00 | 78 | 1012.6 |
| 20260507185521 | 9 | 317 | 6.4 | 9.7 | 0.00 | 0.00 | 0.00 | 78 | 1012.6 |
| 20260507185045 | 9 | 317 | 6.4 | 12.9 | 0.00 | 0.00 | 0.00 | 78 | 1011.6 |
| 20260507184654 | 9 | 312 | 4.8 | 11.3 | 0.00 | 0.00 | 0.00 | 80 | 1012.6 |
| 20260507184526 | 9 | 312 | 6.4 | 11.3 | 0.00 | 0.00 | 0.00 | 80 | 1012.6 |
| 20260507184022 | 9 | 306 | 6.4 | 11.3 | 0.00 | 0.00 | 0.00 | 80 | 1011.9 |
| 20260507183606 | 8 | 305 | 6.4 | 8.0 | 0.00 | 0.00 | 0.00 | 81 | 1012.6 |
| 20260507183532 | 8 | 297 | 4.8 | 8.0 | 0.00 | 0.00 | 0.00 | 81 | 1013.0 |
| 20260507183036 | 8 | 266 | 4.8 | 9.7 | 0.00 | 0.00 | 0.00 | 81 | 1011.9 |
| 20260507182536 | 8 | 294 | 4.8 | 6.4 | 0.00 | 0.00 | 0.00 | 80 | 1012.6 |
| 20260507182527 | 8 | 283 | 4.8 | 8.0 | 0.00 | 0.00 | 0.00 | 80 | 1013.0 |
| 20260507182030 | 8 | 262 | 8.0 | 12.9 | 0.00 | 0.00 | 0.00 | 81 | 1011.9 |
| 20260507181532 | 8 | 234 | 8.0 | 9.7 | 0.00 | 0.00 | 0.00 | 81 | 1013.0 |
| 20260507181523 | 8 | 250 | 6.4 | 9.7 | 0.00 | 0.00 | 0.00 | 81 | 1013.0 |
| 20260507181052 | 8 | 283 | 8.0 | 11.3 | 0.00 | 0.00 | 0.00 | 82 | 1011.9 |
| 20260507180709 | 8 | 311 | 8.0 | 9.7 | 0.00 | 0.00 | 0.00 | 83 | 1013.0 |
| 20260507180546 | 8 | 300 | 9.7 | 14.5 | 0.00 | 0.00 | 0.00 | 83 | 1013.0 |
| 20260507180135 | 8 | 269 | 9.7 | 16.1 | 0.00 | 0.00 | 0.00 | 84 | 1012.3 |
| 20260507175551 | 8 | 269 | 8.0 | 16.1 | 0.00 | 0.00 | 0.00 | 87 | 1013.3 |
| 20260507175542 | 8 | 254 | 9.7 | 14.5 | 0.00 | 0.00 | 0.00 | 87 | 1013.0 |
| 20260507175018 | 7 | 263 | 8.0 | 14.5 | 0.00 | 0.00 | 0.00 | 88 | 1012.3 |
| 20260507174539 | 7 | 276 | 11.3 | 19.3 | 0.00 | 0.00 | 0.00 | 89 | 1013.3 |
| 20260507174521 | 7 | 272 | 11.3 | 19.3 | 0.00 | 0.00 | 0.00 | 89 | 1013.3 |
| 20260507174032 | 7 | 256 | 11.3 | 17.7 | 0.00 | 0.00 | 0.00 | 90 | 1012.3 |
| 20260507173526 | 7 | 271 | 11.3 | 19.3 | 0.00 | 0.00 | 0.00 | 90 | 1013.3 |
| 20260507173020 | 7 | 262 | 12.9 | 20.9 | 0.00 | 0.00 | 0.00 | 90 | 1012.3 |
| 20260507172522 | 7 | 269 | 9.7 | 17.7 | 0.00 | 0.00 | 0.00 | 90 | 1013.3 |
| 20260507172105 | 7 | 249 | 6.4 | 12.9 | 0.00 | 0.00 | 0.00 | 90 | 1012.3 |
| 20260507171527 | 7 | 267 | 8.0 | 12.9 | 0.00 | 0.00 | 0.00 | 91 | 1013.3 |
| 20260507171518 | 7 | 270 | 8.0 | 12.9 | 0.00 | 0.00 | 0.00 | 91 | 1013.3 |
| 20260507171021 | 7 | 288 | 11.3 | 22.5 | 0.00 | 0.00 | 0.00 | 91 | 1012.6 |
| 20260507170558 | 7 | 270 | 11.3 | 20.9 | 0.00 | 0.00 | 0.00 | 92 | 1013.3 |
| 20260507170523 | 7 | 257 | 12.9 | 20.9 | 0.00 | 0.00 | 0.00 | 91 | 1013.3 |
| 20260507170044 | 7 | 281 | 12.9 | 20.9 | 0.00 | 0.00 | 0.00 | 94 | 1012.6 |
| 20260507165520 | 7 | 297 | 9.7 | 19.3 | 0.00 | 0.00 | 0.00 | 96 | 1013.3 |
| 20260507165036 | 7 | 286 | 8.0 | 20.9 | 0.00 | 0.00 | 0.00 | 96 | 1012.6 |
| 20260507164634 | 7 | 264 | 4.8 | 8.0 | 0.00 | 0.00 | 0.00 | 96 | 1013.3 |
| 20260507164525 | 7 | 263 | 6.4 | 11.3 | 0.00 | 0.00 | 0.00 | 96 | 1013.7 |
| 20260507164027 | 6 | 250 | 4.8 | 12.9 | 0.00 | 0.00 | 0.00 | 96 | 1012.6 |
| 20260507163631 | 6 | 268 | 4.8 | 11.3 | 0.00 | 0.00 | 0.00 | 96 | 1013.7 |
| 20260507163521 | 6 | 271 | 6.4 | 11.3 | 0.00 | 0.00 | 0.00 | 96 | 1013.7 |
| 20260507163028 | 6 | 275 | 8.0 | 14.5 | 0.00 | 0.00 | 0.00 | 96 | 1012.6 |
| 20260507162535 | 6 | 242 | 4.8 | 8.0 | 0.00 | 0.00 | 0.00 | 95 | 1013.7 |
| 20260507162042 | 6 | 235 | 4.8 | 9.7 | 0.00 | 0.00 | 0.00 | 95 | 1012.6 |
| 20260507161522 | 6 | 277 | 6.4 | 8.0 | 0.00 | 0.00 | 0.00 | 95 | 1013.7 |
| 20260507161039 | 7 | 266 | 4.8 | 12.9 | 0.00 | 0.00 | 0.00 | 95 | 1012.6 |
| 20260507160536 | 7 | 282 | 4.8 | 6.4 | 0.00 | 0.00 | 0.00 | 95 | 1013.7 |
| 20260507160030 | 7 | 320 | 4.8 | 11.3 | 0.00 | 0.00 | 0.00 | 94 | 1013.0 |
| 20260507155544 | 6 | 298 | 4.8 | 9.7 | 0.00 | 0.00 | 0.00 | 94 | 1013.7 |
| 20260507155027 | 7 | 295 | 3.2 | 8.0 | 0.00 | 0.00 | 0.00 | 94 | 1013.0 |
| 20260507154519 | 7 | 334 | 4.8 | 8.0 | 0.00 | 0.00 | 0.00 | 94 | 1013.7 |
| 20260507154100 | 7 | 259 | 4.8 | 9.7 | 0.00 | 0.00 | 0.00 | 93 | 1013.0 |
| 20260507153634 | 7 | 261 | 3.2 | 6.4 | 0.00 | 0.00 | 0.00 | 93 | 1013.7 |
| 20260507153626 | 7 | 261 | 4.8 | 9.7 | 0.00 | 0.00 | 0.00 | 93 | 1014.0 |
| 20260507153042 | 7 | 330 | 6.4 | 11.3 | 0.00 | 0.00 | 0.00 | 93 | 1013.0 |
| 20260507152616 | 7 | 314 | 9.7 | 12.9 | 0.00 | 0.00 | 0.00 | 92 | 1014.0 |
| 20260507152521 | 7 | 321 | 8.0 | 12.9 | 0.00 | 0.00 | 0.00 | 92 | 1014.0 |
| 20260507152121 | 7 | 324 | 6.4 | 12.9 | 0.00 | 0.00 | 0.00 | 91 | 1013.0 |
| 20260507151526 | 7 | 326 | 8.0 | 12.9 | 0.00 | 0.00 | 0.00 | 91 | 1014.0 |
| 20260507151100 | 7 | 317 | 8.0 | 12.9 | 0.00 | 0.00 | 0.00 | 91 | 1013.3 |
| 20260507150540 | 7 | 315 | 9.7 | 12.9 | 0.00 | 0.00 | 0.00 | 90 | 1014.3 |
| 20260507150522 | 7 | 318 | 9.7 | 12.9 | 0.00 | 0.00 | 0.00 | 90 | 1014.0 |
| 20260507150025 | 7 | 297 | 8.0 | 16.1 | 0.00 | 0.00 | 0.00 | 91 | 1013.3 |
| 20260507145553 | 7 | 313 | 8.0 | 12.9 | 0.00 | 0.00 | 0.00 | 91 | 1014.3 |
| 20260507145538 | 7 | 316 | 8.0 | 11.3 | 0.00 | 0.00 | 0.00 | 91 | 1014.0 |
| 20260507145021 | 6 | 301 | 11.3 | 19.3 | 0.00 | 0.00 | 0.00 | 92 | 1013.3 |
| 20260507144532 | 6 | 312 | 11.3 | 16.1 | 0.00 | 0.00 | 0.00 | 92 | 1014.3 |
| 20260507144523 | 6 | 310 | 11.3 | 16.1 | 0.00 | 0.00 | 0.00 | 92 | 1014.3 |
| 20260507144054 | 6 | 314 | 8.0 | 19.3 | 0.00 | 0.00 | 0.00 | 92 | 1013.3 |
| 20260507143554 | 6 | 303 | 9.7 | 14.5 | 0.00 | 0.00 | 0.00 | 92 | 1014.3 |
| 20260507143520 | 6 | 309 | 11.3 | 20.9 | 0.00 | 0.00 | 0.00 | 92 | 1014.3 |
| 20260507143049 | 6 | 323 | 9.7 | 16.1 | 0.00 | 0.00 | 0.00 | 92 | 1013.3 |
| 20260507142525 | 6 | 315 | 12.9 | 17.7 | 0.00 | 0.00 | 0.00 | 91 | 1014.3 |
| 20260507142018 | 6 | 318 | 11.3 | 17.7 | 0.00 | 0.00 | 0.00 | 91 | 1013.7 |
| 20260507141558 | 7 | 288 | 11.3 | 19.3 | 0.00 | 0.00 | 0.00 | 90 | 1014.3 |
| 20260507141530 | 7 | 290 | 11.3 | 24.1 | 0.00 | 0.00 | 0.00 | 90 | 1014.3 |
| 20260507141032 | 7 | 290 | 12.9 | 22.5 | 0.00 | 0.00 | 0.00 | 90 | 1013.7 |
| 20260507140552 | 7 | 298 | 12.9 | 20.9 | 0.00 | 0.00 | 0.00 | 91 | 1014.3 |
| 20260507140534 | 7 | 294 | 12.9 | 24.1 | 0.00 | 0.00 | 0.00 | 91 | 1014.3 |
| 20260507140025 | 6 | 315 | 11.3 | 16.1 | 0.00 | 0.00 | 0.00 | 91 | 1013.3 |
| 20260507135611 | 7 | 294 | 8.0 | 11.3 | 0.00 | 0.00 | 0.00 | 92 | 1014.3 |
| 20260507135527 | 7 | 286 | 9.7 | 19.3 | 0.00 | 0.00 | 0.00 | 92 | 1014.3 |
| 20260507135033 | 7 | 295 | 9.7 | 14.5 | 0.00 | 0.00 | 0.00 | 91 | 1013.3 |
| 20260507134545 | 7 | 267 | 9.7 | 12.9 | 0.00 | 0.00 | 0.00 | 91 | 1014.3 |
| 20260507134518 | 7 | 282 | 9.7 | 14.5 | 0.00 | 0.00 | 0.00 | 91 | 1014.3 |
| 20260507134025 | 6 | 274 | 12.9 | 19.3 | 0.00 | 0.00 | 0.00 | 92 | 1013.3 |
| 20260507133558 | 6 | 272 | 12.9 | 19.3 | 0.00 | 0.00 | 0.00 | 92 | 1014.3 |
| 20260507133532 | 6 | 275 | 12.9 | 17.7 | 0.00 | 0.00 | 0.00 | 92 | 1014.3 |
| 20260507133035 | 6 | 277 | 9.7 | 16.1 | 0.00 | 0.00 | 0.00 | 92 | 1013.3 |
| 20260507132537 | 6 | 292 | 11.3 | 16.1 | 0.00 | 0.00 | 0.00 | 92 | 1014.3 |
| 20260507132528 | 6 | 289 | 11.3 | 16.1 | 0.00 | 0.00 | 0.00 | 92 | 1014.3 |
| 20260507132022 | 6 | 310 | 8.0 | 16.1 | 0.00 | 0.00 | 0.00 | 93 | 1013.3 |
| 20260507131533 | 6 | 275 | 9.7 | 17.7 | 0.00 | 0.00 | 0.00 | 92 | 1014.0 |
| 20260507131524 | 6 | 276 | 8.0 | 14.5 | 0.00 | 0.00 | 0.00 | 92 | 1014.3 |
| 20260507131018 | 6 | 293 | 9.7 | 16.1 | 0.00 | 0.00 | 0.00 | 93 | 1013.3 |
| 20260507130613 | 6 | 311 | 8.0 | 12.9 | 0.00 | 0.00 | 0.00 | 93 | 1014.3 |
| 20260507130521 | 6 | 310 | 8.0 | 12.9 | 0.00 | 0.00 | 0.00 | 93 | 1014.3 |
| 20260507130029 | 6 | 300 | 9.7 | 12.9 | 0.00 | 0.00 | 0.00 | 93 | 1013.7 |
| 20260507125534 | 6 | 293 | 9.7 | 14.5 | 0.00 | 0.00 | 0.00 | 93 | 1014.3 |
| 20260507125526 | 6 | 288 | 9.7 | 14.5 | 0.00 | 0.00 | 0.00 | 93 | 1014.7 |
| 20260507125020 | 6 | 295 | 11.3 | 17.7 | 0.00 | 0.00 | 0.00 | 93 | 1013.7 |
| 20260507124522 | 6 | 300 | 11.3 | 16.1 | 0.00 | 0.00 | 0.00 | 93 | 1014.7 |
| 20260507124200 | 6 | 279 | 9.7 | 14.5 | 0.00 | 0.00 | 0.00 | 94 | 1013.7 |
| 20260507123544 | 6 | 277 | 9.7 | 16.1 | 0.00 | 0.00 | 0.00 | 94 | 1014.3 |
| 20260507123518 | 6 | 277 | 9.7 | 14.5 | 0.00 | 0.00 | 0.00 | 94 | 1014.3 |
| 20260507123041 | 6 | 276 | 8.0 | 14.5 | 0.00 | 0.00 | 0.00 | 94 | 1013.7 |
| 20260507122523 | 6 | 279 | 9.7 | 17.7 | 0.00 | 0.00 | 0.00 | 94 | 1014.7 |
| 20260507122026 | 6 | 270 | 12.9 | 19.3 | 0.00 | 0.00 | 0.00 | 94 | 1013.7 |
| 20260507121545 | 6 | 280 | 11.3 | 16.1 | 0.00 | 0.00 | 0.00 | 94 | 1014.3 |
| 20260507121519 | 6 | 285 | 11.3 | 17.7 | 0.00 | 0.00 | 0.00 | 94 | 1014.3 |
| 20260507121043 | 6 | 260 | 9.7 | 14.5 | 0.00 | 0.00 | 0.00 | 94 | 1013.3 |
| 20260507120542 | 6 | 281 | 11.3 | 14.5 | 0.00 | 0.00 | 0.00 | 94 | 1014.3 |
| 20260507120533 | 6 | 287 | 9.7 | 12.9 | 0.00 | 0.00 | 0.00 | 94 | 1014.7 |
| 20260507120018 | 6 | 279 | 9.7 | 16.1 | 0.00 | 0.00 | 0.00 | 95 | 1013.7 |
| 20260507115529 | 6 | 260 | 11.3 | 16.1 | 0.00 | 0.00 | 0.00 | 95 | 1014.3 |
| 20260507115521 | 6 | 261 | 9.7 | 12.9 | 0.00 | 0.00 | 0.00 | 95 | 1014.7 |
| 20260507115034 | 6 | 283 | 9.7 | 11.3 | 0.00 | 0.00 | 0.00 | 95 | 1013.7 |
| 20260507114603 | 6 | 254 | 6.4 | 9.7 | 0.00 | 0.00 | 0.00 | 95 | 1014.7 |
| 20260507114555 | 6 | 253 | 6.4 | 11.3 | 0.00 | 0.00 | 0.00 | 95 | 1014.3 |
| 20260507114021 | 6 | 292 | 8.0 | 11.3 | 0.00 | 0.00 | 0.00 | 95 | 1013.7 |
| 20260507113522 | 6 | 244 | 8.0 | 11.3 | 0.00 | 0.00 | 0.00 | 95 | 1014.3 |
| 20260507113024 | 6 | 266 | 8.0 | 16.1 | 0.00 | 0.00 | 0.00 | 95 | 1013.7 |
| 20260507112556 | 6 | 264 | 9.7 | 12.9 | 0.00 | 0.00 | 0.00 | 95 | 1014.3 |
| 20260507112035 | 6 | 265 | 6.4 | 9.7 | 0.00 | 0.00 | 0.00 | 95 | 1013.7 |
| 20260507111553 | 6 | 274 | 9.7 | 17.7 | 0.00 | 0.00 | 0.00 | 95 | 1014.7 |
| 20260507111523 | 6 | 268 | 9.7 | 16.1 | 0.00 | 0.00 | 0.00 | 95 | 1014.3 |
| 20260507111034 | 5 | 272 | 9.7 | 14.5 | 0.00 | 0.00 | 0.00 | 95 | 1013.7 |
| 20260507110528 | 5 | 279 | 11.3 | 16.1 | 0.00 | 0.00 | 0.00 | 95 | 1014.3 |
| 20260507110519 | 5 | 281 | 9.7 | 14.5 | 0.00 | 0.00 | 0.00 | 95 | 1014.7 |
| 20260507110022 | 5 | 284 | 9.7 | 16.1 | 0.00 | 0.00 | 0.00 | 95 | 1013.7 |
| 20260507105524 | 5 | 245 | 14.5 | 20.9 | 0.00 | 0.00 | 0.00 | 95 | 1014.7 |
| 20260507105028 | 5 | 279 | 11.3 | 20.9 | 0.00 | 0.00 | 0.00 | 95 | 1013.7 |
| 20260507104541 | 5 | 281 | 9.7 | 17.7 | 0.00 | 0.00 | 0.00 | 95 | 1014.7 |
| 20260507104520 | 5 | 276 | 9.7 | 16.1 | 0.00 | 0.00 | 0.00 | 95 | 1014.3 |
| 20260507104050 | 5 | 247 | 9.7 | 16.1 | 0.00 | 0.00 | 0.00 | 95 | 1013.3 |
| 20260507103655 | 5 | 265 | 8.0 | 14.5 | 0.00 | 0.00 | 0.00 | 95 | 1014.7 |
| 20260507103525 | 5 | 267 | 8.0 | 14.5 | 0.00 | 0.00 | 0.00 | 95 | 1014.3 |
| 20260507103029 | 5 | 265 | 4.8 | 9.7 | 0.00 | 0.00 | 0.00 | 95 | 1013.3 |
| 20260507102539 | 5 | 246 | 9.7 | 12.9 | 0.00 | 0.00 | 0.00 | 95 | 1014.3 |
| 20260507102522 | 5 | 246 | 8.0 | 12.9 | 0.00 | 0.00 | 0.00 | 95 | 1014.3 |
| 20260507102033 | 5 | 218 | 6.4 | 9.7 | 0.00 | 0.00 | 0.00 | 95 | 1013.3 |
| 20260507101619 | 5 | 197 | 3.2 | 8.0 | 0.00 | 0.00 | 0.00 | 95 | 1014.0 |
| 20260507101518 | 5 | 216 | 4.8 | 9.7 | 0.00 | 0.00 | 0.00 | 95 | 1014.0 |
| 20260507101021 | 5 | 223 | 4.8 | 12.9 | 0.00 | 0.00 | 0.00 | 94 | 1013.3 |
| 20260507100523 | 5 | 276 | 3.2 | 8.0 | 0.00 | 0.00 | 0.00 | 94 | 1014.0 |
| 20260507100031 | 5 | 244 | 4.8 | 8.0 | 0.00 | 0.00 | 0.00 | 94 | 1013.3 |
| 20260507095519 | 5 | 237 | 4.8 | 9.7 | 0.00 | 0.00 | 0.00 | 94 | 1014.0 |
| 20260507095022 | 5 | 233 | 8.0 | 14.5 | 0.00 | 0.00 | 0.00 | 94 | 1013.3 |
| 20260507094608 | 5 | 267 | 9.7 | 16.1 | 0.00 | 0.00 | 0.00 | 94 | 1014.0 |
| 20260507094533 | 5 | 259 | 9.7 | 16.1 | 0.00 | 0.00 | 0.00 | 94 | 1014.3 |
| 20260507094036 | 5 | 277 | 8.0 | 14.5 | 0.00 | 0.00 | 0.00 | 94 | 1013.3 |
| 20260507093529 | 5 | 257 | 8.0 | 16.1 | 0.00 | 0.00 | 0.00 | 94 | 1014.0 |
| 20260507093521 | 5 | 249 | 8.0 | 16.1 | 0.00 | 0.00 | 0.00 | 94 | 1014.3 |
| 20260507093043 | 5 | 296 | 6.4 | 14.5 | 0.00 | 0.00 | 0.00 | 93 | 1013.3 |
| 20260507092607 | 5 | 277 | 6.4 | 9.7 | 0.00 | 0.00 | 0.00 | 93 | 1014.3 |
| 20260507092543 | 5 | 278 | 6.4 | 11.3 | 0.00 | 0.00 | 0.00 | 93 | 1014.3 |
| 20260507092020 | 5 | 242 | 4.8 | 9.7 | 0.00 | 0.00 | 0.00 | 93 | 1013.3 |
| 20260507091539 | 5 | 304 | 6.4 | 9.7 | 0.00 | 0.00 | 0.00 | 93 | 1014.3 |
| 20260507091531 | 5 | 286 | 4.8 | 8.0 | 0.00 | 0.00 | 0.00 | 93 | 1014.3 |
| 20260507091033 | 5 | 289 | 6.4 | 9.7 | 0.00 | 0.00 | 0.00 | 93 | 1013.7 |
| 20260507090622 | 5 | 307 | 6.4 | 9.7 | 0.00 | 0.00 | 0.00 | 93 | 1014.7 |
| 20260507090526 | 5 | 307 | 6.4 | 9.7 | 0.00 | 0.00 | 0.00 | 93 | 1014.3 |
| 20260507090021 | 5 | 318 | 6.4 | 9.7 | 0.00 | 0.00 | 0.00 | 93 | 1013.7 |
| 20260507085612 | 5 | 325 | 6.4 | 8.0 | 0.00 | 0.00 | 0.00 | 93 | 1014.3 |
| 20260507085523 | 5 | 322 | 6.4 | 9.7 | 0.00 | 0.00 | 0.00 | 93 | 1014.7 |
| 20260507085026 | 5 | 332 | 4.8 | 6.4 | 0.00 | 0.00 | 0.00 | 93 | 1013.7 |
| 20260507084620 | 5 | 317 | 6.4 | 11.3 | 0.00 | 0.00 | 0.00 | 94 | 1014.3 |
| 20260507084519 | 5 | 314 | 6.4 | 9.7 | 0.00 | 0.00 | 0.00 | 94 | 1014.7 |
| 20260507084027 | 5 | 314 | 8.0 | 12.9 | 0.00 | 0.00 | 0.00 | 95 | 1013.7 |
| 20260507083608 | 5 | 317 | 6.4 | 12.9 | 0.00 | 0.00 | 0.00 | 95 | 1014.7 |
| 20260507083600 | 5 | 325 | 6.4 | 12.9 | 0.00 | 0.00 | 0.00 | 95 | 1014.7 |
| 20260507083027 | 5 | 322 | 6.4 | 8.0 | 0.00 | 0.00 | 0.00 | 96 | 1014.0 |
| 20260507082541 | 5 | 340 | 6.4 | 9.7 | 0.00 | 0.00 | 0.00 | 97 | 1014.7 |
| 20260507082529 | 5 | 339 | 4.8 | 9.7 | 0.00 | 0.00 | 0.00 | 97 | 1014.7 |
| 20260507082037 | 5 | 324 | 4.8 | 9.7 | 0.00 | 0.00 | 0.00 | 97 | 1014.0 |
| 20260507081534 | 5 | 320 | 6.4 | 8.0 | 0.00 | 0.00 | 0.00 | 97 | 1014.7 |
| 20260507081526 | 5 | 324 | 4.8 | 6.4 | 0.00 | 0.00 | 0.00 | 97 | 1014.7 |
| 20260507081019 | 5 | 322 | 3.2 | 8.0 | 0.00 | 0.00 | 0.00 | 97 | 1013.7 |
| 20260507080626 | 5 | 319 | 4.8 | 6.4 | 0.00 | 0.00 | 0.00 | 97 | 1014.3 |
| 20260507080548 | 5 | 322 | 4.8 | 8.0 | 0.00 | 0.00 | 0.00 | 97 | 1014.7 |
| 20260507080033 | 5 | 336 | 4.8 | 11.3 | 0.00 | 0.00 | 0.00 | 97 | 1013.7 |
| 20260507075555 | 5 | 313 | 4.8 | 6.4 | 0.00 | 0.00 | 0.00 | 97 | 1014.3 |
| 20260507075527 | 5 | 325 | 4.8 | 6.4 | 0.00 | 0.00 | 0.00 | 97 | 1014.7 |
| 20260507075020 | 5 | 332 | 3.2 | 4.8 | 0.00 | 0.00 | 0.00 | 97 | 1013.7 |
| 20260507074523 | 5 | 313 | 3.2 | 6.4 | 0.00 | 0.00 | 0.00 | 97 | 1014.3 |
| 20260507074057 | 5 | 326 | 1.6 | 4.8 | 0.00 | 0.00 | 0.00 | 97 | 1013.7 |
| 20260507073548 | 5 | 328 | 3.2 | 6.4 | 0.00 | 0.00 | 0.00 | 97 | 1014.7 |
| 20260507073519 | 5 | 332 | 1.6 | 4.8 | 0.00 | 0.00 | 0.00 | 97 | 1014.7 |
| 20260507073022 | 5 | 336 | 4.8 | 6.4 | 0.00 | 0.00 | 0.00 | 97 | 1014.0 |
| 20260507072600 | 5 | 323 | 4.8 | 6.4 | 0.00 | 0.00 | 0.00 | 97 | 1014.7 |
| 20260507072028 | 5 | 321 | 4.8 | 8.0 | 0.00 | 0.00 | 0.00 | 97 | 1014.0 |
| 20260507071555 | 5 | 328 | 3.2 | 6.4 | 0.00 | 0.00 | 0.00 | 97 | 1014.7 |
| 20260507071521 | 5 | 331 | 3.2 | 4.8 | 0.00 | 0.00 | 0.00 | 97 | 1014.7 |
| 20260507071023 | 5 | 310 | 3.2 | 6.4 | 0.00 | 0.00 | 0.00 | 97 | 1014.0 |
| 20260507070534 | 5 | 296 | 6.4 | 9.7 | 0.00 | 0.00 | 0.00 | 97 | 1014.7 |
| 20260507070525 | 5 | 305 | 6.4 | 9.7 | 0.00 | 0.00 | 0.00 | 97 | 1015.0 |
| 20260507070033 | 5 | 325 | 4.8 | 6.4 | 0.00 | 0.00 | 0.00 | 96 | 1014.0 |
| 20260507065559 | 5 | 308 | 4.8 | 9.7 | 0.00 | 0.00 | 0.00 | 96 | 1015.0 |
| 20260507065548 | 5 | 299 | 4.8 | 9.7 | 0.00 | 0.00 | 0.00 | 96 | 1014.7 |
| 20260507065024 | 5 | 315 | 4.8 | 8.0 | 0.00 | 0.00 | 0.00 | 96 | 1014.0 |
| 20260507064535 | 5 | 300 | 4.8 | 8.0 | 0.00 | 0.00 | 0.00 | 96 | 1015.0 |
| 20260507064527 | 5 | 285 | 4.8 | 8.0 | 0.00 | 0.00 | 0.00 | 96 | 1015.0 |
| 20260507064030 | 5 | 324 | 4.8 | 9.7 | 0.00 | 0.00 | 0.00 | 96 | 1014.0 |
| 20260507063540 | 5 | 302 | 4.8 | 8.0 | 0.00 | 0.00 | 0.00 | 96 | 1015.0 |
| 20260507063031 | 5 | 297 | 6.4 | 9.7 | 0.00 | 0.00 | 0.00 | 96 | 1014.0 |
| 20260507062609 | 5 | 307 | 4.8 | 9.7 | 0.00 | 0.00 | 0.00 | 96 | 1015.0 |
| 20260507062519 | 5 | 310 | 6.4 | 9.7 | 0.00 | 0.00 | 0.00 | 96 | 1015.0 |
| 20260507062042 | 5 | 275 | 4.8 | 9.7 | 0.00 | 0.00 | 0.00 | 96 | 1014.3 |
| 20260507061542 | 5 | 290 | 4.8 | 9.7 | 0.00 | 0.00 | 0.00 | 95 | 1015.0 |
| 20260507061524 | 5 | 295 | 4.8 | 9.7 | 0.00 | 0.00 | 0.00 | 95 | 1015.4 |
| 20260507061044 | 5 | 287 | 6.4 | 11.3 | 0.00 | 0.00 | 0.00 | 95 | 1014.3 |
| 20260507060541 | 6 | 283 | 3.2 | 8.0 | 0.00 | 0.00 | 0.00 | 95 | 1015.0 |
| 20260507060024 | 5 | 317 | 6.4 | 11.3 | 0.00 | 0.00 | 0.00 | 94 | 1014.3 |
| 20260507055525 | 5 | 308 | 6.4 | 11.3 | 0.00 | 0.00 | 0.00 | 94 | 1015.4 |
| 20260507055019 | 6 | 293 | 6.4 | 11.3 | 0.00 | 0.00 | 0.00 | 94 | 1014.7 |
| 20260507054650 | 6 | 296 | 8.0 | 12.9 | 0.00 | 0.00 | 0.00 | 94 | 1015.4 |
| 20260507054530 | 6 | 297 | 6.4 | 12.9 | 0.00 | 0.00 | 0.00 | 94 | 1015.7 |
| 20260507054053 | 6 | 294 | 8.0 | 14.5 | 0.00 | 0.00 | 0.00 | 94 | 1014.7 |
| 20260507053604 | 5 | 303 | 6.4 | 12.9 | 0.00 | 0.00 | 0.00 | 94 | 1015.4 |
| 20260507053527 | 5 | 310 | 8.0 | 12.9 | 0.00 | 0.00 | 0.00 | 94 | 1015.7 |
| 20260507053021 | 6 | 313 | 6.4 | 14.5 | 0.00 | 0.00 | 0.00 | 93 | 1014.7 |
| 20260507052615 | 6 | 317 | 8.0 | 14.5 | 0.00 | 0.00 | 0.00 | 93 | 1015.7 |
| 20260507052532 | 6 | 316 | 8.0 | 14.5 | 0.00 | 0.00 | 0.00 | 93 | 1015.4 |
| 20260507052046 | 5 | 319 | 6.4 | 11.3 | 0.00 | 0.00 | 0.00 | 93 | 1014.7 |
| 20260507051536 | 5 | 313 | 6.4 | 9.7 | 0.00 | 0.00 | 0.00 | 93 | 1015.7 |
| 20260507051528 | 5 | 318 | 6.4 | 9.7 | 0.00 | 0.00 | 0.00 | 93 | 1015.7 |
| 20260507051022 | 6 | 320 | 8.0 | 9.7 | 0.00 | 0.00 | 0.00 | 93 | 1015.0 |
| 20260507050544 | 6 | 310 | 6.4 | 11.3 | 0.00 | 0.00 | 0.00 | 93 | 1015.7 |
| 20260507050036 | 6 | 316 | 6.4 | 9.7 | 0.00 | 0.00 | 0.00 | 93 | 1015.0 |
| 20260507045541 | 6 | 324 | 6.4 | 11.3 | 0.00 | 0.00 | 0.00 | 93 | 1015.7 |
| 20260507045520 | 6 | 322 | 6.4 | 8.0 | 0.00 | 0.00 | 0.00 | 93 | 1015.7 |
| 20260507045049 | 6 | 330 | 4.8 | 9.7 | 0.00 | 0.00 | 0.00 | 93 | 1015.0 |
| 20260507044525 | 6 | 307 | 6.4 | 9.7 | 0.00 | 0.00 | 0.00 | 93 | 1015.7 |
| 20260507044039 | 6 | 321 | 6.4 | 11.3 | 0.00 | 0.00 | 0.00 | 93 | 1015.0 |
| 20260507043522 | 6 | 320 | 8.0 | 11.3 | 0.00 | 0.00 | 0.00 | 93 | 1015.7 |
| 20260507043029 | 6 | 321 | 6.4 | 16.1 | 0.00 | 0.00 | 0.00 | 93 | 1014.7 |
| 20260507042527 | 6 | 324 | 8.0 | 11.3 | 0.00 | 0.00 | 0.00 | 93 | 1015.7 |
| 20260507042020 | 6 | 329 | 6.4 | 11.3 | 0.00 | 0.00 | 0.00 | 92 | 1015.0 |
| 20260507041532 | 6 | 329 | 6.4 | 9.7 | 0.00 | 0.00 | 0.00 | 92 | 1015.7 |
| 20260507041523 | 6 | 330 | 6.4 | 9.7 | 0.00 | 0.00 | 0.00 | 92 | 1015.7 |
| 20260507041100 | 6 | 328 | 8.0 | 9.7 | 0.00 | 0.00 | 0.00 | 92 | 1014.7 |
| 20260507040612 | 6 | 310 | 6.4 | 11.3 | 0.00 | 0.00 | 0.00 | 92 | 1015.7 |
| 20260507040528 | 6 | 316 | 8.0 | 11.3 | 0.00 | 0.00 | 0.00 | 92 | 1016.0 |